Simultaneous Nadir Overpasses (SNOs) Predictions

Prediction of SNOs between NOAA-20 and AQUA Satellite Orbit:

Table of predicted SNOs for the next 14.0 days since TLE Epoch: 6/29/2024
Index Date (NOAA-20) Time (NOAA-20) Lat,Lon (NOAA-20) SZA (NOAA-20 ) Date (AQUA) Time (AQUA) Lat,Lon (AQUA) SZA (AQUA ) Distance(km) Time Diff (sec)
1 06/30/2024 15:30:00 -81.28, 51.77 114.85 06/30/2024 15:30:25 -81.28, 51.89 114.88 1.96 25
2 06/30/2024 16:20:44 81.29,-140.41 65.08 06/30/2024 16:19:46 81.28,-140.30 65.10 1.81 58
3 07/03/2024 03:33:12 81.28, 51.17 65.33 07/03/2024 03:33:56 81.28, 51.21 65.30 0.62 44
4 07/03/2024 04:23:55 -81.29,-140.85 114.77 07/03/2024 04:23:18 -81.29,-141.00 114.73 2.42 37
5 07/05/2024 15:36:24 -81.28, 50.30 114.42 07/05/2024 15:37:27 -81.28, 50.35 114.47 0.85 63
6 07/05/2024 16:27:08 81.29,-141.92 65.52 07/05/2024 16:26:48 81.28,-141.94 65.53 0.44 20
7 07/08/2024 04:30:19 -81.29,-142.44 114.25 07/08/2024 04:30:17 -81.29,-142.58 114.22 2.49 2
8 07/10/2024 16:33:31 81.29,-143.67 66.14 07/10/2024 16:33:43 81.28,-143.63 66.13 0.81 12



Historial Predications of SNOs between NOAA-20 and AQUA
